Location: Bayshore Village Mobile Home Park
(26.6945°N, 81.8642°W)
Time: 14:51:12
(UTC+00:00)

CZ-4C R/B - Pass Details

Date: 17 June 2021
Orbit: 464 x 632 km, 98.0° (Epoch: 26 July)

Event Time Altitude Azimuth Distance (km) Brightness Sun altitude
Exits shadow 08:56:36 38° 291° (WNW) 735 3.7 -19.0°
Drops below altitude 10° 08:59:16 10° 333° (NNW) 1,624 5.9 -18.6°
Sets 09:01:21 0° 340° (NNW) 2,496 6.9 -18.2°
